Location: Cahas Mountain Overlook
(37.0833°N, 80.1000°W)
Time: 19:01:56
(UTC-04:00)

Tiros 1 - Pass Details

Date: 16 February 2026
Orbit: 618 x 649 km, 48.4° (Epoch: 13 March)

Event Time Altitude Azimuth Distance (km) Brightness Sun altitude
Rises 14:16:18 0° 307° (NW) 2,888 10.4 35.3°
Reaches altitude 10° 14:18:46 10° 317° (NW) 1,979 9.6 35.0°
Maximum altitude 14:22:58 36° 24° (NNE) 986 8.0 34.6°
Drops below altitude 10° 14:27:09 10° 91° (E) 1,974 9.5 34.1°
Sets 14:29:36 0° 100° (E) 2,880 10.3 33.8°
